This is the latest recevied weather packets stored in our database for station/object IU8HRV-10. If no packets are shown the sender has not sent any weather packets the latest 10 day(s).
| Time | Temp. | Humidity | Pressure | Rain* | Wind** | Luminosity | Snow |
|---|---|---|---|---|---|---|---|
| 1778061292 | 23.89° C | 40% | 1016 hPa | - | - | - | - |
| 1778058588 | 23.33° C | 40% | 1016 hPa | - | - | - | - |
| 1778056785 | 23.33° C | 41% | 1016 hPa | - | - | - | - |
| 1778055884 | 23.33° C | 41% | 1016 hPa | - | - | - | - |
| 1778054983 | 22.78° C | 41% | 1015 hPa | - | - | - | - |
| 1778054082 | 22.78° C | 42% | 1016 hPa | - | - | - | - |
| 1778053181 | 22.78° C | 42% | 1016 hPa | - | - | - | - |
| 1778052280 | 22.78° C | 42% | 1016 hPa | - | - | - | - |
| 1778051379 | 22.22° C | 44% | 1016 hPa | - | - | - | - |
| 1778050478 | 21.67° C | 46% | 1016 hPa | - | - | - | - |
| 1778049577 | 21.67° C | 47% | 1016 hPa | - | - | - | - |
| 1778048676 | 21.11° C | 51% | 1016 hPa | - | - | - | - |
| 1778047775 | 21.11° C | 42% | 1016 hPa | - | - | - | - |
| 1778046874 | 21.67° C | 41% | 1016 hPa | - | - | - | - |
| 1778045972 | 21.67° C | 40% | 1016 hPa | - | - | - | - |
| 1778045071 | 22.22° C | 40% | 1016 hPa | - | - | - | - |
| 1778044170 | 21.67° C | 39% | 1016 hPa | - | - | - | - |
| 1778043269 | 21.11° C | 40% | 1015 hPa | - | - | - | - |
| 1778042368 | 22.22° C | 39% | 1015 hPa | - | - | - | - |
| 1778041467 | 21.67° C | 40% | 1015 hPa | - | - | - | - |
| 1778040566 | 21.11° C | 41% | 1015 hPa | - | - | - | - |
| 1778039665 | 21.11° C | 40% | 1015 hPa | - | - | - | - |
| 1778038764 | 21.67° C | 40% | 1015 hPa | - | - | - | - |
| 1778037863 | 21.67° C | 40% | 1015 hPa | - | - | - | - |
| 1778036962 | 21.11° C | 41% | 1015 hPa | - | - | - | - |
* Rain since midnight (hover to see other rain measurements)
** Current wind speed in m/s (hover to see current wind gust speed)